Wind_Speed
28 28 27 27 28 28 27 27 28 27 27 26 27 27 27 27 27 29 30 30 30 30 31 31 32 33 35 35 36 37 38 40 43 44 45 46 48 49 49 50 52 54 56 56
28 28 28 27 28 28 28 29 29 29 28 27 28 29 28 28 28 27 28 29 29 29 30 31 32 33 35 35 35 36 36 37 40 42 44 45 46 47 49 50 51 52 54 56
29 28 28 28 28 29 29 29 29 29 28 28 28 30 29 28 28 28 27 27 28 28 29 30 32 33 34 35 36 37 37 37 38 39 41 42 44 45 47 48 49 52 52 54
30 30 29 28 28 28 28 28 29 30 29 28 28 29 29 29 28 27 27 27 27 28 28 29 31 33 35 35 36 36 36 38 39 39 39 40 42 44 45 48 48 49 51 52
31 31 30 28 28 28 28 28 29 30 30 29 28 28 28 28 27 26 26 26 26 27 27 28 30 31 33 34 35 35 36 37 37 38 38 39 41 42 44 46 47 47 48 49
30 31 30 28 28 28 29 28 28 28 29 30 29 28 26 26 27 26 25 25 26 26 27 28 29 30 32 33 34 34 35 37 38 38 38 38 40 42 43 45 46 46 46 47
29 29 29 27 27 27 27 27 27 27 28 28 29 28 27 26 26 25 25 25 24 25 26 27 28 29 31 32 33 34 36 37 37 37 38 39 39 40 42 43 44 45 45 46
29 28 27 27 26 26 27 26 26 27 27 27 28 28 27 27 26 25 25 25 25 24 25 25 26 27 29 31 32 34 35 36 37 37 37 37 38 38 39 40 42 42 42 42
29 28 28 28 27 27 26 26 26 26 27 27 27 27 27 26 26 25 25 25 25 25 25 24 25 26 28 30 31 32 34 34 35 36 37 37 37 38 38 39 40 41 42 42
29 28 28 28 28 27 27 27 27 27 27 26 26 26 25 25 25 24 25 25 24 24 25 25 25 26 27 29 30 31 32 33 33 34 35 36 36 36 37 37 38 39 39 41
28 28 29 28 28 27 27 27 26 27 26 26 26 25 24 24 24 24 24 24 24 24 25 24 24 25 27 28 29 31 32 32 33 33 33 34 35 35 35 36 37 38 38 38
28 28 28 28 28 28 28 27 26 26 26 26 26 25 24 23 23 23 23 24 25 25 25 24 25 25 26 28 29 30 31 31 32 34 33 33 33 34 34 35 36 36 36 37
27 27 27 27 27 27 27 27 26 26 25 26 25 25 24 24 23 23 24 24 25 26 26 25 25 25 26 27 28 28 29 30 31 33 33 33 33 33 33 34 34 35 36 36
25 25 25 25 25 25 26 26 25 25 25 25 25 24 24 24 24 24 24 25 25 26 26 26 25 26 26 27 27 28 29 29 30 31 32 33 33 34 33 33 33 34 35 36
24 24 24 23 24 24 24 25 25 25 25 25 24 24 24 24 25 25 25 25 25 26 27 27 27 27 27 28 28 29 29 30 30 30 32 33 34 34 34 34 33 33 34 35
23 23 23 22 22 22 22 23 23 24 24 24 23 24 24 25 24 24 25 25 25 26 27 28 29 29 28 28 29 29 30 30 30 30 31 32 33 33 33 33 33 32 32 33
22 22 22 21 21 21 20 21 21 22 22 23 23 23 24 24 23 23 24 24 24 25 26 26 27 28 28 28 29 29 30 30 30 30 31 31 32 32 33 34 33 33 33 33
21 20 20 20 20 20 20 20 20 20 21 21 21 21 22 22 22 22 23 23 23 24 25 25 26 27 28 28 29 29 29 30 30 30 31 31 31 32 33 34 34 35 34 33
20 19 19 19 19 19 19 19 19 19 19 19 19 19 20 20 20 21 21 22 22 23 24 25 25 26 26 27 28 29 30 31 31 31 31 31 31 32 33 34 34 35 35 34
19 19 19 19 20 20 20 19 19 19 19 18 18 18 18 18 19 19 19 20 21 21 22 23 24 25 26 26 27 28 29 30 30 30 31 31 32 32 32 33 34 34 35 35
20 20 19 20 20 20 20 19 19 18 18 18 18 18 18 18 18 18 18 18 19 20 21 22 23 24 24 26 27 27 28 29 29 29 30 31 31 32 32 33 33 33 33 34
21 21 20 20 20 20 19 19 19 19 18 18 19 19 18 18 17 17 17 17 18 19 20 20 21 23 24 25 25 26 27 28 29 30 30 30 31 31 31 31 32 32 32 32
21 21 20 19 19 19 18 18 18 18 18 18 18 18 18 17 17 16 16 16 17 18 18 19 20 21 22 23 24 25 26 27 28 29 30 30 31 31 32 32 32 32 32 32
21 20 20 19 19 18 18 18 18 18 18 18 17 17 17 16 16 16 16 16 17 17 18 18 19 19 20 21 23 24 25 26 27 28 29 30 30 31 32 32 33 33 33 33
21 20 20 19 19 18 18 17 17 17 18 17 17 16 16 16 16 16 16 16 17 17 17 18 18 19 19 20 22 23 24 25 26 27 28 29 29 30 31 32 33 33 33 33
21 20 20 19 19 18 18 18 18 18 17 17 17 16 16 16 16 17 17 17 17 17 18 18 19 19 19 20 21 22 23 24 25 26 27 28 28 29 30 31 32 33 33 33
20 20 19 19 19 19 19 18 18 18 18 17 17 17 17 17 17 17 18 18 18 19 19 19 19 20 20 21 22 23 24 24 25 25 26 27 27 28 28 29 30 30 31 31
Wind_Direction
296 293 289 284 280 279 278 276 276 276 274 274 273 274 275 275 272 270 268 265 263 261 258 254 249 245 241 239 236 236 237 238 237 235 237 238 239 239 239 240 240 241 241 241
295 292 289 284 280 278 277 276 276 276 274 273 274 275 275 276 274 271 269 264 262 260 257 251 247 245 242 241 239 238 239 238 236 237 237 238 238 240 241 242 241 242 242 242
295 292 289 285 283 280 277 277 276 276 276 273 273 275 275 275 274 273 271 265 261 260 258 254 250 247 245 244 243 241 240 239 237 236 237 238 240 240 242 243 243 244 244 244
295 293 289 288 285 282 278 277 277 275 275 274 273 273 273 274 274 273 271 267 262 259 257 255 251 248 246 247 247 245 244 243 241 240 240 241 240 242 243 243 244 245 245 244
294 293 291 287 286 283 280 278 277 276 274 273 274 274 271 271 272 271 270 268 264 261 258 255 250 247 247 247 248 246 245 243 241 240 241 243 243 243 244 243 243 243 243 243
294 293 292 290 287 284 282 280 279 278 276 273 273 273 272 271 270 269 267 266 264 261 258 257 253 249 248 247 247 246 245 245 244 244 245 246 246 245 245 244 243 243 242 243
293 292 291 290 287 283 282 282 281 279 277 275 272 273 273 271 269 269 267 265 262 260 259 257 252 249 247 247 246 245 246 246 247 247 247 247 248 247 245 244 244 244 243 243
292 291 291 290 287 285 283 281 281 280 278 276 274 272 272 271 270 269 267 265 263 262 260 257 253 250 249 248 248 246 246 246 246 247 248 249 250 249 247 246 245 245 244 244
290 290 290 288 286 285 284 281 280 279 278 277 276 273 271 272 271 269 267 266 263 261 260 258 254 251 249 249 248 247 247 248 248 248 248 249 250 250 249 247 246 245 245 244
289 289 288 286 285 285 284 281 280 279 278 278 277 273 270 269 269 268 266 265 263 260 257 255 253 251 249 248 248 247 248 249 248 248 248 250 251 251 250 249 248 248 248 247
290 289 288 287 286 285 284 282 281 280 277 276 276 273 270 268 268 267 266 265 263 260 256 255 254 253 251 249 248 249 250 250 249 249 249 250 251 252 251 248 249 249 250 250
293 293 290 287 285 284 283 282 281 279 278 277 277 275 272 270 269 268 267 265 263 261 258 255 254 253 253 251 249 249 250 251 250 248 250 251 252 252 251 250 250 250 251 251
294 293 290 287 284 282 281 281 280 280 279 278 276 273 272 271 271 271 269 267 264 262 260 257 254 253 253 252 251 250 251 252 251 250 249 251 251 251 250 250 251 250 249 250
296 294 291 289 287 285 281 278 279 279 278 277 275 274 272 271 271 272 269 267 265 262 260 257 255 254 253 253 252 251 252 253 253 251 250 250 250 250 250 250 250 251 251 250
298 297 294 291 290 288 283 279 279 279 278 276 275 274 273 273 273 272 270 268 265 262 259 257 255 254 255 255 253 252 252 253 254 253 251 250 250 250 250 250 251 252 251 250
298 297 296 293 291 289 286 284 281 280 279 277 276 275 274 273 274 272 271 269 267 264 261 259 256 255 255 256 255 253 252 251 252 252 251 250 250 250 250 249 251 251 251 251
299 298 297 295 293 291 288 286 285 283 281 279 278 277 274 273 273 273 272 270 268 265 262 259 256 255 254 254 255 254 252 251 251 252 252 251 250 250 250 250 251 251 252 252
299 297 297 296 295 293 290 288 286 284 284 283 282 280 276 273 273 274 273 270 268 265 260 258 256 255 254 253 253 253 253 252 252 252 252 252 252 251 251 250 250 251 252 253
297 296 295 295 295 294 292 291 289 288 288 288 286 284 282 279 277 275 274 271 268 265 261 257 257 257 257 255 253 253 253 252 252 252 253 253 253 252 252 251 251 252 253 254
297 295 295 295 295 294 293 291 290 289 289 289 289 289 287 284 280 277 274 272 268 265 262 259 257 256 256 255 254 254 253 253 253 252 253 254 254 253 252 253 253 254 254 254
298 297 295 294 295 295 292 290 288 288 288 288 288 288 287 286 284 280 277 276 272 267 264 262 260 258 257 257 255 254 253 252 253 253 254 255 255 254 254 254 253 253 253 254
299 298 296 294 294 294 292 290 287 287 287 287 287 289 288 288 286 282 280 277 274 271 268 265 263 262 261 259 257 255 254 253 253 254 255 255 255 255 254 254 253 252 253 253
298 298 297 294 293 293 291 290 289 289 289 288 288 288 288 288 288 286 283 280 277 275 273 271 270 268 265 262 260 258 257 256 256 256 256 256 255 255 255 255 254 254 253 254
296 296 295 294 293 292 290 290 290 290 290 289 287 285 285 286 287 286 283 281 279 277 276 275 274 272 269 266 263 261 260 260 259 259 258 258 258 257 256 255 255 255 254 254
293 293 293 293 293 292 291 290 290 290 290 289 287 284 284 284 284 285 284 283 281 280 279 278 277 275 272 269 267 264 263 262 262 262 261 261 260 259 258 256 255 255 256 255
290 289 289 290 290 290 290 289 289 290 290 289 287 285 285 285 286 287 286 285 284 283 282 280 278 277 276 274 271 269 268 267 265 264 263 263 262 260 259 258 258 258 257 256
288 287 287 288 289 290 290 290 289 289 289 288 287 285 285 285 285 285 285 284 284 284 283 282 281 281 280 277 275 272 272 271 269 268 266 264 263 262 261 260 259 258 257 257
Height
5574 5570 5568 5566 5565 5563 5561 5560 5559 5559 5558 5557 5554 5553 5552 5550 5549 5548 5547 5546 5546 5547 5547 5548 5549 5551 5553 5556 5559 5563 5566 5569 5573 5577 5581 5585 5590 5594 5598 5602 5606 5610 5614 5619
5566 5563 5560 5558 5556 5555 5553 5552 5551 5550 5550 5549 5546 5545 5544 5542 5541 5539 5539 5538 5538 5538 5539 5540 5541 5543 5545 5548 5551 5554 5557 5560 5563 5567 5570 5575 5578 5582 5586 5590 5593 5597 5601 5605
5557 5554 5551 5550 5549 5547 5545 5544 5543 5541 5542 5540 5538 5536 5535 5534 5533 5532 5530 5530 5530 5530 5530 5531 5533 5534 5537 5539 5542 5544 5548 5551 5554 5557 5561 5565 5568 5571 5574 5578 5580 5584 5588 5592
5548 5546 5543 5544 5540 5538 5536 5536 5534 5533 5532 5531 5529 5528 5527 5526 5524 5523 5522 5522 5522 5522 5522 5523 5524 5526 5528 5530 5533 5536 5539 5542 5545 5548 5551 5554 5557 5560 5563 5566 5569 5572 5575 5579
5539 5536 5534 5535 5532 5529 5527 5527 5525 5524 5523 5522 5521 5520 5519 5517 5516 5515 5514 5514 5514 5514 5514 5515 5516 5517 5520 5522 5525 5527 5530 5533 5536 5539 5541 5544 5547 5549 5552 5555 5557 5560 5563 5567
5530 5527 5525 5526 5523 5519 5519 5518 5517 5515 5514 5513 5512 5512 5512 5510 5508 5508 5507 5506 5506 5506 5507 5507 5508 5509 5511 5514 5516 5519 5522 5524 5527 5529 5532 5534 5536 5539 5541 5544 5546 5549 5551 5555
5521 5518 5517 5517 5514 5512 5512 5511 5508 5506 5505 5504 5503 5503 5503 5501 5501 5500 5499 5499 5498 5498 5499 5500 5501 5502 5504 5506 5508 5511 5513 5516 5518 5520 5523 5525 5527 5529 5531 5533 5536 5538 5542 5545
5513 5510 5511 5508 5505 5504 5503 5501 5499 5498 5497 5496 5495 5494 5494 5493 5493 5492 5491 5491 5491 5491 5491 5492 5493 5495 5496 5498 5500 5502 5505 5507 5510 5511 5513 5516 5518 5519 5521 5523 5526 5528 5532 5534
5506 5505 5502 5499 5497 5495 5494 5492 5491 5490 5489 5488 5487 5486 5486 5485 5485 5485 5484 5483 5483 5483 5484 5485 5486 5487 5488 5490 5491 5493 5496 5498 5501 5503 5505 5507 5509 5510 5512 5514 5516 5519 5522 5525
5496 5496 5493 5490 5489 5487 5485 5484 5482 5481 5480 5479 5479 5478 5478 5477 5477 5477 5476 5476 5475 5476 5477 5477 5478 5479 5481 5482 5483 5485 5488 5490 5492 5494 5496 5498 5500 5501 5503 5505 5507 5510 5512 5515
5488 5487 5485 5483 5480 5479 5477 5476 5474 5473 5472 5471 5470 5470 5470 5469 5469 5469 5468 5468 5468 5468 5469 5470 5471 5472 5473 5474 5476 5478 5480 5481 5483 5485 5487 5489 5491 5492 5494 5496 5498 5501 5503 5505
5480 5478 5476 5474 5472 5471 5469 5468 5467 5466 5464 5463 5462 5462 5461 5461 5461 5460 5460 5460 5460 5461 5461 5462 5463 5464 5466 5467 5468 5470 5471 5473 5474 5476 5479 5481 5482 5484 5485 5487 5489 5491 5493 5496
5472 5469 5467 5465 5464 5462 5461 5460 5459 5458 5456 5455 5454 5454 5453 5453 5453 5452 5452 5452 5453 5453 5453 5454 5456 5457 5458 5459 5460 5461 5463 5464 5466 5468 5470 5472 5474 5475 5477 5479 5480 5482 5484 5486
5464 5461 5459 5458 5456 5454 5453 5452 5451 5450 5448 5447 5446 5446 5445 5445 5445 5445 5444 5444 5444 5445 5445 5446 5448 5449 5449 5451 5452 5453 5455 5456 5458 5460 5461 5463 5465 5466 5468 5470 5471 5473 5475 5476
5457 5454 5452 5450 5448 5446 5445 5444 5443 5442 5440 5439 5439 5438 5437 5437 5437 5436 5436 5436 5436 5436 5437 5438 5439 5440 5441 5442 5444 5445 5446 5448 5449 5451 5452 5454 5456 5457 5459 5461 5463 5464 5465 5467
5450 5447 5445 5443 5441 5439 5438 5436 5435 5434 5432 5432 5431 5430 5429 5429 5428 5428 5428 5427 5428 5428 5428 5429 5431 5432 5433 5434 5435 5436 5437 5439 5440 5441 5443 5445 5446 5448 5450 5452 5453 5455 5456 5458
5443 5441 5439 5437 5435 5433 5431 5429 5428 5427 5425 5424 5423 5422 5421 5421 5420 5420 5419 5419 5419 5420 5420 5421 5422 5423 5424 5425 5426 5427 5428 5430 5431 5433 5434 5435 5437 5439 5441 5442 5444 5446 5447 5448
5437 5434 5432 5430 5428 5426 5425 5423 5421 5420 5418 5417 5416 5415 5414 5413 5413 5412 5411 5411 5411 5411 5412 5413 5413 5414 5415 5416 5417 5419 5420 5421 5422 5424 5425 5426 5427 5429 5431 5433 5435 5436 5438 5439
5430 5428 5426 5424 5422 5420 5419 5417 5415 5413 5412 5410 5409 5408 5407 5405 5405 5404 5403 5403 5403 5403 5404 5404 5405 5406 5407 5408 5409 5410 5411 5412 5413 5415 5416 5418 5419 5420 5422 5424 5425 5426 5428 5429
5424 5422 5420 5418 5416 5414 5412 5411 5409 5407 5405 5404 5403 5401 5400 5399 5398 5397 5396 5396 5395 5396 5396 5396 5397 5398 5398 5399 5400 5401 5402 5403 5404 5406 5407 5408 5410 5411 5412 5414 5415 5417 5418 5419
5418 5416 5414 5412 5410 5408 5406 5404 5403 5401 5399 5398 5397 5395 5394 5393 5392 5391 5390 5389 5388 5388 5388 5388 5389 5389 5390 5390 5391 5392 5393 5394 5395 5397 5398 5399 5400 5401 5403 5404 5405 5407 5408 5409
5412 5410 5408 5406 5404 5402 5400 5398 5396 5395 5393 5392 5391 5389 5388 5387 5385 5384 5383 5383 5382 5381 5381 5381 5381 5381 5382 5382 5383 5383 5384 5385 5386 5387 5388 5390 5391 5392 5393 5394 5395 5397 5398 5399
5405 5403 5401 5399 5397 5395 5393 5391 5390 5388 5387 5386 5385 5383 5382 5381 5380 5379 5377 5377 5375 5375 5374 5374 5374 5374 5374 5374 5374 5375 5375 5376 5377 5378 5379 5380 5381 5382 5383 5384 5385 5387 5388 5389
5398 5396 5394 5392 5391 5389 5387 5385 5384 5382 5381 5380 5378 5377 5376 5375 5374 5373 5372 5371 5370 5369 5368 5367 5367 5366 5366 5366 5366 5366 5367 5367 5368 5368 5369 5370 5371 5371 5372 5374 5375 5376 5378 5379
5391 5389 5387 5386 5384 5382 5381 5379 5378 5376 5375 5373 5372 5371 5370 5369 5368 5367 5366 5365 5364 5363 5362 5361 5360 5359 5359 5358 5358 5358 5358 5358 5359 5359 5359 5360 5361 5361 5362 5363 5364 5366 5367 5368
5384 5382 5381 5379 5377 5376 5374 5373 5371 5370 5368 5367 5366 5365 5364 5363 5362 5361 5360 5359 5358 5357 5356 5355 5354 5353 5352 5351 5351 5350 5350 5350 5350 5350 5350 5350 5351 5351 5352 5353 5354 5355 5355 5357
5376 5375 5374 5372 5371 5369 5368 5366 5365 5364 5362 5361 5360 5359 5358 5357 5356 5355 5354 5353 5352 5351 5349 5348 5347 5346 5345 5344 5343 5343 5342 5342 5341 5341 5341 5341 5341 5341 5342 5342 5343 5344 5345 5346